This is the latest recevied weather packets stored in our database for station/object LU4EGV-13. If no packets are shown the sender has not sent any weather packets the latest 10 day(s).
| Time | Temp. | Humidity | Pressure | Rain* | Wind** | Luminosity | Snow |
|---|---|---|---|---|---|---|---|
| 1788314441 | 17.22° C | 71% | 1018.5 hPa | 0 mm | - | - | - |
| 1788314437 | 16.67° C | 73% | 1018.3 hPa | 0 mm | - | - | - |
| 1788314431 | 16.11° C | 76% | 1018.2 hPa | 0 mm | - | - | - |
| 1788314427 | 16.11° C | 79% | 1018.1 hPa | 0 mm | - | - | - |
| 1788314412 | 15.56° C | 80% | 1018.2 hPa | 0 mm | - | - | - |
| 1788314409 | 15.56° C | 88% | 1018.1 hPa | 0 mm | - | - | - |
| 1788314404 | 15° C | 91% | 1018.1 hPa | 0 mm | - | - | - |
| 1788314400 | 14.44° C | 93% | 1018.2 hPa | 0 mm | - | - | - |
| 1788314396 | 13.33° C | 94% | 1018 hPa | 0 mm | - | - | - |
| 1788314392 | 13.33° C | 94% | 1017.9 hPa | 0 mm | - | - | - |
| 1788314388 | 13.33° C | 95% | 1017.4 hPa | 0 mm | - | - | - |
| 1788314384 | 13.33° C | 95% | 1017.4 hPa | 0 mm | - | - | - |
| 1788314380 | 12.78° C | 95% | 1017.4 hPa | 0 mm | - | - | - |
| 1788314376 | 12.78° C | 92% | 1017.6 hPa | 0 mm | - | - | - |
| 1788314372 | 12.78° C | 95% | 1017.3 hPa | 0 mm | - | - | - |
| 1788314368 | 12.78° C | 96% | 1017.3 hPa | 0 mm | - | - | - |
| 1788314364 | 12.78° C | 95% | 1017.2 hPa | 0 mm | - | - | - |
| 1788314360 | 12.78° C | 95% | 1017.2 hPa | 0 mm | - | - | - |
| 1788314356 | 12.78° C | 95% | 1017.1 hPa | 0 mm | - | - | - |
| 1788314352 | 12.22° C | 95% | 1017.1 hPa | 0 mm | - | - | - |
| 1788314347 | 12.78° C | 96% | 1017.1 hPa | 0 mm | - | - | - |
| 1788314343 | 12.78° C | 96% | 1016.8 hPa | 0 mm | - | - | - |
| 1788314339 | 12.78° C | 96% | 1016.6 hPa | 0 mm | - | - | - |
| 1788314335 | 12.78° C | 96% | 1016.8 hPa | 0 mm | - | - | - |
| 1788314331 | 12.78° C | 97% | 1016.4 hPa | 0 mm | - | - | - |
* Rain latest hour (hover to see other rain measurements)
** Current wind speed in m/s (hover to see current wind gust speed)